Weather History for Elizabeth City, NC

Change the Weather History Date:

Saturday, May 12, 2012

  Actual Average Record
Temperature  
Mean Temperature 67 °F 65 °F  
Max Temperature 79 °F 76 °F 90 °F (1956)
Min Temperature 54 °F 55 °F 43 °F (1941)
Degree Days  
Heating Degree Days 0 3  
Month to date heating degree days 0 42  
Since 1 July heating degree days 2311 3203  
Cooling Degree Days 2 3  
Month to date cooling degree days 81 30  
Year to date cooling degree days 183 72  
Growing Degree Days 16 (Base 50)    
Moisture  
Dew Point 49 °F    
Average Humidity 57    
Maximum Humidity 86    
Minimum Humidity 28    
Precipitation  
Precipitation 0.00 in 0.11 in 1.55 in (1968)
Month to date precipitation 4.03 1.27  
Year to date precipitation 16.44 14.83  
Snow  
Snow 0.00 in - 0.00 in (2002)
Month to date snowfall 0.0  
Since 1 July snowfall 0.0  
Snow Depth 0.00 in    
Sea Level Pressure  
Sea Level Pressure 30.30 in    
Wind  
Wind Speed 6 mph (SSW)    
Max Wind Speed 12 mph    
Max Gust Speed 15 mph    
Visibility 10 miles    
Events      
T = Trace of Precipitation, MM = Missing Value Source: NWS Daily Summary

Daily Weather History Graph

Daily Weather History Graph

Search for Another Location

Airport:

Trip Planner

Search our weather history database for the weather conditions in past years. The results will help you decide how hot, cold, wet, or windy it might be!

Date:

Astronomy

May. 12, 2012 Rise Set
Actual Time 6:00 AM EDT 8:02 PM EDT
Civil Twilight 5:31 AM EDT 8:30 PM EDT
Nautical Twilight 4:57 AM EDT 9:05 PM EDT
Astronomical Twilight 4:20 AM EDT 9:42 PM EDT
Moon 1:18 AM EDT (5/12) 12:32 PM EDT (5/12)
Length of Visible Light 14h 58m
Length of Day
14h 01m
Waning Gibbous, 53% of the Moon is Illuminated
May 12
Waning Gibbous
May 12
Last Quarter
May 20
New
May 28
First Quarter
Jun 4
Full

Hourly Weather History & Observations

Time (EDT) Temp. Dew Point Humidity Pressure Visibility Wind Dir Wind Speed Gust Speed Precip Events Conditions
12:54 AM 59.0 °F 51.1 °F 75% 30.26 in 10.0 mi South 5.8 mph - N/A   Clear
1:54 AM 60.1 °F 50.0 °F 69% 30.25 in 10.0 mi South 6.9 mph - N/A   Clear
2:54 AM 61.0 °F 50.0 °F 67% 30.26 in 10.0 mi South 5.8 mph - N/A   Clear
5:54 AM 55.9 °F 52.0 °F 87% 30.29 in 10.0 mi SW 4.6 mph - N/A   Clear
8:54 AM 70.0 °F 57.0 °F 63% 30.33 in 10.0 mi SW 6.9 mph - N/A   Clear
9:54 AM 73.0 °F 52.0 °F 48% 30.33 in 10.0 mi WSW 8.1 mph - N/A   Clear
10:54 AM 75.0 °F 48.9 °F 40% 30.34 in 10.0 mi WSW 5.8 mph - N/A   Clear
11:54 AM 77.0 °F 44.1 °F 31% 30.35 in 10.0 mi Variable 4.6 mph - N/A   Clear
12:54 PM 78.1 °F 43.0 °F 29% 30.34 in 10.0 mi SW 4.6 mph - N/A   Clear
1:54 PM 78.1 °F 44.1 °F 30% 30.32 in 10.0 mi South 5.8 mph - N/A   Clear
2:54 PM 77.0 °F 45.0 °F 32% 30.31 in 10.0 mi SW 8.1 mph - N/A   Clear
3:54 PM 77.0 °F 48.0 °F 36% 30.30 in 10.0 mi SW 9.2 mph - N/A   Clear
4:54 PM 75.9 °F 46.0 °F 35% 30.28 in 10.0 mi SW 6.9 mph - N/A   Clear
5:54 PM 75.9 °F 50.0 °F 40% 30.28 in 10.0 mi WSW 4.6 mph - N/A   Clear
6:54 PM 72.0 °F 52.0 °F 49% 30.27 in 10.0 mi SW 4.6 mph - N/A   Clear
7:54 PM 71.1 °F 50.0 °F 47% 30.27 in 10.0 mi South 4.6 mph - N/A   Clear
8:54 PM 66.9 °F 52.0 °F 59% 30.27 in 10.0 mi SSE 5.8 mph - N/A   Clear
9:54 PM 68.0 °F 50.0 °F 52% 30.28 in 10.0 mi South 8.1 mph - N/A   Clear
10:54 PM 66.0 °F 51.1 °F 59% 30.30 in 10.0 mi South 5.8 mph - N/A   Clear
11:54 PM 64.0 °F 52.0 °F 65% 30.30 in 10.0 mi SSW 4.6 mph - N/A   Clear